[[{"header":{"parameterUnit":"m.s-1","parameterCategory":1,"la1":30.2992,"la2":30.254,"lo1":-89.0895,"lo2":-89.0443,"dy":0.0025,"dx":0.0025,"nx":19,"ny":19,"refTime":"2026-03-29T09:00:00:Z","depth":0,"parameterNumber":2,"parameterNumberName":"U-component_of_WINDS"},"data":[0,0,0,-7.3803,-7.3807,-7.3952,-7.3952,-7.417,-7.4172,0,0,0,0,0,0,0,0,0,0,0,-7.3782,-7.3784,-7.3803,-7.3807,-7.3952,-7.3952,-7.417,-7.4172,0,0,0,0,0,0,0,0,0,0,0,-7.3781,-7.3783,-7.3786,-7.3808,-7.3952,-7.3953,-7.4169,-7.4048,0,0,0,0,0,0,0,0,0,0,-7.3901,-7.3903,-7.3783,-7.3786,-7.3809,-7.3952,-7.3953,-7.4041,-7.4055,-7.4119,0,-7.4183,0,-7.4182,-7.4189,-7.419,0,0,0,-7.379,-7.3891,-7.3911,-7.3787,-7.381,-7.3952,-7.3882,-7.4049,-7.4065,-7.4138,-7.4186,-7.4193,-7.4185,-7.4191,-7.4192,-7.462,-7.4623,0,0,-7.3782,-7.3819,-7.3901,-7.3923,-7.3905,-7.3877,-7.3887,-7.4058,-7.4112,-7.4187,-7.4198,-7.4189,-7.4193,-7.4194,-7.4618,-7.4621,0,0,0,-7.3771,-7.3814,-7.3829,-7.3915,-7.3939,-7.3882,-7.3893,-7.4104,-7.4106,-7.42,-7.4192,-7.4194,-7.4197,-7.4615,-7.4619,-7.4791,0,0,0,-7.3765,-7.3807,-7.3826,-7.385,-7.3937,-7.4024,-7.3936,-7.4094,-7.4112,-7.4191,-7.4194,-7.4199,-7.4611,-7.4617,-7.478,-7.4865,0,0,0,-7.3765,-7.3807,-7.3836,-7.3852,-7.3916,-7.402,-7.4031,-7.4097,-7.4109,-7.419,-7.42,-7.4609,-7.4616,-7.477,-7.4848,-7.4986,0,0,0,-7.3774,-7.3986,-7.3839,-7.4073,-7.3915,-7.4128,-7.403,-7.4186,-7.4277,-7.4195,-7.4612,-7.4619,-7.4766,-7.4838,-7.4976,-7.5107,-7.5166,0,0,-7.4062,-7.4022,-7.4157,-7.4029,-7.4277,-7.4103,-7.4375,-7.4423,-7.4397,-7.4547,-7.4557,-7.4784,-7.4847,-7.4984,-7.5492,-7.5539,0,0,0,-7.426,-7.4357,-7.4415,-7.4504,-7.4548,-7.4591,-7.4594,-7.4612,-7.4738,-7.4482,-7.4872,-7.4908,-7.4987,-7.5048,-7.5088,-7.5152,-7.4649,-7.4649,-7.4648,-7.4715,-7.4673,-7.4892,-7.4867,-7.4956,-7.4958,-7.5024,-7.5048,-7.4977,-7.5071,-7.5113,-7.5427,-7.55,-7.5529,-7.5597,-7.5183,-7.5183,-7.5184,-7.5184,-7.5129,-7.5257,-7.5163,-7.534,-7.5294,-7.5442,-7.5453,-7.5398,-7.5528,-7.5391,-7.5458,-7.5309,-7.5583,-7.5639,-7.5197,-7.5195,-7.5193,-7.5192,-7.5191,-7.5419,-7.5472,-7.5494,-7.5619,-7.5721,-7.5689,-7.5818,-7.5772,-7.5728,-7.5795,-7.5833,-7.583,-7.5818,-7.5818,-7.5819,-7.582,-7.5821,-7.5822,-7.5822,-7.5709,-7.5727,-7.5843,-7.591,-7.5961,-7.6023,-7.603,-7.6078,-7.612,-7.6075,-7.6075,-7.5994,-7.562,-7.5524,-7.5839,-7.5836,-7.5834,-7.5832,-7.5831,-7.6136,-7.6033,-7.6212,-7.6264,-7.6338,-7.6441,-7.6382,-7.6486,-7.652,-7.6585,-7.6492,-7.6224,-7.6178,-7.6146,-7.6066,-7.6502,-7.6502,-7.6502,-7.6502,-7.6377,-7.6352,-7.6524,-7.661,-7.669,-7.6656,-7.6857,-7.6865,-7.6856,-7.6874,-7.6806,-7.6698,-7.6667,-7.6639,-7.6596,-7.6521,-7.7063,-7.7063,-7.7064,-7.6636,-7.6616,-7.6797,-7.679,-7.6845,-7.6893,-7.708,-7.7181,-7.715,-7.7086,-7.6886,-7.6863,-7.6688,-7.6634,-7.6559,-7.6493,-7.6354,0,0]},{"header":{"parameterUnit":"m.s-1","parameterCategory":1,"la1":30.2992,"la2":30.254,"lo1":-89.0895,"lo2":-89.0443,"dy":0.0025,"dx":0.0025,"nx":19,"ny":19,"refTime":"2026-03-29T09:00:00:Z","depth":0,"parameterNumber":3,"parameterNumberName":"V-component_of_WINDS"},"data":[0,0,0,1.5856,1.5855,1.5818,1.5818,1.5785,1.5785,0,0,0,0,0,0,0,0,0,0,0,1.5876,1.5876,1.5856,1.5855,1.5818,1.5818,1.5785,1.5785,0,0,0,0,0,0,0,0,0,0,0,1.5875,1.5876,1.5876,1.5855,1.5818,1.5818,1.5785,1.5808,0,0,0,0,0,0,0,0,0,0,1.5841,1.5868,1.5876,1.5876,1.5855,1.5818,1.5818,1.5808,1.5806,1.5808,0,1.5812,0,1.5798,1.5783,1.5783,0,0,0,1.5848,1.587,1.5852,1.5876,1.5855,1.5818,1.5833,1.5807,1.5804,1.5805,1.5812,1.581,1.5798,1.5783,1.5783,1.582,1.5821,0,0,1.585,1.5873,1.5854,1.5851,1.5858,1.5834,1.5832,1.5805,1.5814,1.5811,1.5809,1.5797,1.5783,1.5783,1.582,1.582,0,0,0,1.5861,1.5875,1.5857,1.5853,1.5845,1.5833,1.583,1.5815,1.5807,1.5808,1.5797,1.5783,1.5783,1.5819,1.582,1.5868,0,0,0,1.5861,1.5881,1.5859,1.5873,1.5846,1.5829,1.5841,1.5809,1.5805,1.5797,1.5783,1.5783,1.5819,1.582,1.5866,1.5886,0,0,0,1.5875,1.5882,1.588,1.5874,1.5859,1.5829,1.582,1.5808,1.5799,1.5783,1.5783,1.5818,1.5819,1.5863,1.5883,1.5904,0,0,0,1.5895,1.5922,1.5882,1.5907,1.586,1.586,1.582,1.5819,1.5812,1.5783,1.5819,1.582,1.5863,1.588,1.5902,1.5926,1.5938,0,0,1.5942,1.5928,1.5942,1.5905,1.5919,1.5864,1.5885,1.5855,1.5832,1.5825,1.5826,1.5867,1.5882,1.5903,1.6,1.601,0,0,0,1.5964,1.5974,1.5973,1.5968,1.5948,1.5933,1.5898,1.5888,1.5882,1.5833,1.5879,1.5888,1.5899,1.591,1.5918,1.5927,1.5826,1.5826,1.5826,1.6062,1.6033,1.6054,1.6021,1.6018,1.5984,1.5978,1.5958,1.5928,1.594,1.5937,1.6,1.6013,1.6019,1.6028,1.5948,1.5948,1.5948,1.5948,1.6127,1.6137,1.61,1.6107,1.6077,1.6082,1.6052,1.6031,1.6031,1.5998,1.6007,1.5973,1.6031,1.6038,1.5952,1.5951,1.5951,1.595,1.595,1.6187,1.6187,1.6176,1.6169,1.6167,1.6133,1.6137,1.6108,1.6081,1.609,1.6085,1.6084,1.608,1.609,1.609,1.6091,1.6091,1.6091,1.6091,1.6254,1.624,1.6246,1.623,1.6225,1.6215,1.6185,1.6179,1.6165,1.6144,1.6144,1.6114,1.6042,1.6025,1.6094,1.6094,1.6093,1.6093,1.6093,1.6329,1.6309,1.6319,1.6315,1.6295,1.6296,1.6261,1.6253,1.6244,1.6247,1.6216,1.6168,1.6152,1.6145,1.613,1.6222,1.6222,1.6222,1.6222,1.638,1.637,1.6376,1.6371,1.6362,1.6334,1.6348,1.6325,1.6298,1.6292,1.6275,1.6253,1.6248,1.6234,1.6225,1.6211,1.6322,1.6322,1.6322,1.6425,1.6414,1.643,1.6405,1.6389,1.6376,1.6389,1.6385,1.635,1.6325,1.6286,1.6282,1.6247,1.6237,1.6209,1.6196,1.6169,0,0]}]]